Weather reports worldwide

Advertisment
Cozzo Spadaro, Italy (16480): temperature & dewpoint: 17.07.2019 22:00:00 - 23.07.2019 22:00:00 (CEST)Cozzo Spadaro, Italy (16480): wind speed: 17.07.2019 22:00:00 - 23.07.2019 22:00:00 (CEST)Cozzo Spadaro, Italy (16480): wind direction: 17.07.2019 22:00:00 - 23.07.2019 22:00:00 (CEST)Cozzo Spadaro, Italy (16480): reduced air pressure: 17.07.2019 22:00:00 - 23.07.2019 22:00:00 (CEST)Cozzo Spadaro, Italy (16480): visibility: 17.07.2019 22:00:00 - 23.07.2019 22:00:00 (CEST)Cozzo Spadaro, Italy (16480): sunshine duration: 17.07.2019 22:00:00 - 23.07.2019 22:00:00 (CEST)
Date & Time tt [°C] td [°C] ff [km/h] ff [kn] dd ppp [hPa] vv [km] sd [min]
23.07.2019 22:00:00 - - - - - - - -
23.07.2019 21:00:00 - - - - - - - -
23.07.2019 20:00:00 28,2 21,7 9 5 W 1014,0 10 12
23.07.2019 19:00:00 29,2 22,0 9 5 W 1014,0 10 48
23.07.2019 18:00:00 29,8 22,3 9 5 W 1014,7 10 42
23.07.2019 17:00:00 30,2 22,9 11 6 WSW 1014,8 20 60
23.07.2019 16:00:00 29,8 23,7 11 6 WSW 1014,8 20 60
23.07.2019 15:00:00 31,0 23,4 9 5 SE 1014,8 20 60
23.07.2019 14:00:00 31,4 22,7 5 3 SE 1014,9 20 60
23.07.2019 13:00:00 30,2 25,0 9 5 E 1015,4 20 60
23.07.2019 12:00:00 30,2 24,4 9 5 E 1015,5 20 60
23.07.2019 11:00:00 30,0 23,9 11 6 ENE 1015,7 20 60
23.07.2019 10:00:00 29,4 23,1 11 6 NE 1015,4 20 60
23.07.2019 09:00:00 28,0 23,2 8 4 NE 1015,7 20 60
23.07.2019 08:00:00 26,6 22,0 4 2 ENE 1015,9 20 48
23.07.2019 07:00:00 - - - - - - - -
23.07.2019 06:00:00 - - - - - - - -
23.07.2019 05:00:00 - - - - - - - -
23.07.2019 04:00:00 - - - - - - - -
23.07.2019 03:00:00 - - - - - - - -
23.07.2019 02:00:00 - - - - - - - -
23.07.2019 01:00:00 - - - - - - - -
23.07.2019 00:00:00 - - - - - - - -
22.07.2019 23:00:00 - - - - - - - -
22.07.2019 22:00:00 - - - - - - - -
22.07.2019 21:00:00 - - - - - - - -
22.07.2019 20:00:00 28,4 21,2 4 2 W 1017,0 20 24
22.07.2019 19:00:00 29,2 19,8 5 3 W 1017,2 20 60
22.07.2019 18:00:00 29,4 20,8 4 2 SW 1017,8 20 60
22.07.2019 17:00:00 29,8 23,7 4 2 SSE 1017,8 20 60
22.07.2019 16:00:00 30,0 23,9 5 3 ESE 1018,0 20 60
22.07.2019 15:00:00 30,0 24,9 9 5 E 1018,4 20 60
22.07.2019 14:00:00 30,4 23,6 11 6 ENE 1018,5 20 60
22.07.2019 13:00:00 31,0 21,8 13 7 E 1018,5 20 60
22.07.2019 12:00:00 31,2 18,6 4 2 E 1018,2 20 60
22.07.2019 11:00:00 29,8 18,0 4 2 E 1017,9 20 60
22.07.2019 10:00:00 29,8 18,3 2 1 SE 1017,5 20 60
22.07.2019 09:00:00 28,8 22,1 0 0 N 1017,5 20 60
22.07.2019 08:00:00 26,0 20,1 0 0 N 1017,6 20 54
22.07.2019 07:00:00 - - - - - - - -
22.07.2019 06:00:00 - - - - - - - -
22.07.2019 05:00:00 - - - - - - - -
22.07.2019 04:00:00 - - - - - - - -
22.07.2019 03:00:00 - - - - - - - -
22.07.2019 02:00:00 - - - - - - - -
22.07.2019 01:00:00 - - - - - - - -
22.07.2019 00:00:00 - - - - - - - -
21.07.2019 23:00:00 - - - - - - - -
21.07.2019 22:00:00 - - - - - - - -
21.07.2019 21:00:00 - - - - - - - -
21.07.2019 20:00:00 26,0 22,3 5 3 W 1017,9 20 18
21.07.2019 19:00:00 26,4 21,4 5 3 SW 1017,9 20 60
21.07.2019 18:00:00 27,2 21,3 8 4 SW 1017,9 20 60
21.07.2019 17:00:00 27,8 19,9 5 3 SSW 1017,9 20 60
21.07.2019 16:00:00 28,0 20,8 8 4 SSE 1018,1 20 60
21.07.2019 15:00:00 28,2 21,5 8 4 SE 1018,2 20 60
21.07.2019 14:00:00 28,6 22,1 5 3 ESE 1018,1 20 60
21.07.2019 13:00:00 28,6 22,1 5 3 ESE 1018,2 20 60
21.07.2019 12:00:00 28,4 21,7 5 3 ESE 1018,3 20 60
21.07.2019 11:00:00 27,8 22,5 8 4 E 1018,3 20 60
21.07.2019 10:00:00 27,4 22,6 9 5 E 1018,5 20 60
21.07.2019 09:00:00 26,8 22,4 9 5 ENE 1018,6 20 60
21.07.2019 08:00:00 26,2 23,3 9 5 ENE 1018,2 20 60
21.07.2019 07:00:00 - - - - - - - -
21.07.2019 06:00:00 - - - - - - - -
21.07.2019 05:00:00 - - - - - - - -
21.07.2019 04:00:00 - - - - - - - -
21.07.2019 03:00:00 - - - - - - - -
21.07.2019 02:00:00 - - - - - - - -
21.07.2019 01:00:00 - - - - - - - -
21.07.2019 00:00:00 - - - - - - - -
20.07.2019 23:00:00 - - - - - - - -
20.07.2019 22:00:00 - - - - - - - -
20.07.2019 21:00:00 - - - - - - - -
20.07.2019 20:00:00 25,0 22,7 5 3 WSW 1016,9 10 0
20.07.2019 19:00:00 25,8 22,9 8 4 SW 1016,9 10 60
20.07.2019 18:00:00 26,0 22,3 8 4 SW 1016,9 20 60
20.07.2019 17:00:00 27,0 20,6 8 4 SW 1016,9 20 60
20.07.2019 16:00:00 28,6 15,2 5 3 SW 1016,8 20 60
20.07.2019 15:00:00 27,0 22,2 9 5 SW 1017,1 20 60
20.07.2019 14:00:00 27,2 21,9 11 6 E 1017,1 20 60
20.07.2019 13:00:00 27,6 22,3 8 4 SSE 1017,1 20 60
20.07.2019 12:00:00 28,2 22,0 8 4 SE 1016,9 20 60
20.07.2019 11:00:00 28,0 23,4 8 4 ESE 1016,4 20 60
20.07.2019 10:00:00 27,0 23,5 4 2 ENE 1016,1 10 60
20.07.2019 09:00:00 26,2 23,3 4 2 ENE 1015,9 10 60
20.07.2019 08:00:00 25,8 24,0 4 2 E 1015,9 10 54
20.07.2019 07:00:00 - - - - - - - -
20.07.2019 06:00:00 - - - - - - - -
20.07.2019 05:00:00 - - - - - - - -
20.07.2019 04:00:00 - - - - - - - -
20.07.2019 03:00:00 - - - - - - - -
20.07.2019 02:00:00 - - - - - - - -
20.07.2019 01:00:00 - - - - - - - -
20.07.2019 00:00:00 - - - - - - - -
19.07.2019 23:00:00 - - - - - - - -
19.07.2019 22:00:00 - - - - - - - -
19.07.2019 21:00:00 - - - - - - - -
19.07.2019 20:00:00 25,0 20,7 9 5 W 1013,9 20 0
19.07.2019 19:00:00 25,4 20,7 11 6 W 1013,9 20 60
19.07.2019 18:00:00 26,2 20,8 11 6 WSW 1014,0 20 60
19.07.2019 17:00:00 27,0 19,9 9 5 SW 1014,2 20 60
19.07.2019 16:00:00 27,6 20,2 9 5 SW 1014,4 20 60
19.07.2019 15:00:00 27,6 19,1 9 5 SSE 1014,4 20 60
19.07.2019 14:00:00 28,0 19,5 8 4 SE 1014,4 20 60
19.07.2019 13:00:00 28,2 20,7 8 4 ESE 1014,3 20 60
19.07.2019 12:00:00 28,0 21,1 9 5 E 1014,1 20 60
19.07.2019 11:00:00 27,4 20,7 9 5 E 1013,9 20 60
19.07.2019 10:00:00 26,4 21,6 5 3 ENE 1013,9 20 60
19.07.2019 09:00:00 25,8 21,9 4 2 ENE 1013,9 20 60
19.07.2019 08:00:00 25,0 22,3 4 2 NE 1013,6 10 54
19.07.2019 07:00:00 - - - - - - - -
19.07.2019 06:00:00 - - - - - - - -
19.07.2019 05:00:00 - - - - - - - -
19.07.2019 04:00:00 - - - - - - - -
19.07.2019 03:00:00 - - - - - - - -
19.07.2019 02:00:00 - - - - - - - -
19.07.2019 01:00:00 - - - - - - - -
19.07.2019 00:00:00 - - - - - - - -
18.07.2019 23:00:00 - - - - - - - -
18.07.2019 22:00:00 - - - - - - - -
18.07.2019 21:00:00 - - - - - - - -
18.07.2019 20:00:00 24,0 21,3 15 8 W 1010,9 20 12
18.07.2019 19:00:00 25,0 20,7 15 8 W 1010,9 20 60
18.07.2019 18:00:00 26,0 19,6 16 9 W 1010,9 20 60
18.07.2019 17:00:00 27,0 19,9 13 7 W 1011,0 20 60
18.07.2019 16:00:00 27,2 18,8 13 7 WSW 1011,0 20 60
18.07.2019 15:00:00 27,0 20,3 8 4 WSW 1011,2 20 60
18.07.2019 14:00:00 26,2 20,8 11 6 WSW 1011,4 20 60
18.07.2019 13:00:00 27,4 21,9 8 4 SSE 1011,4 20 60
18.07.2019 12:00:00 27,8 22,1 8 4 E 1011,4 20 60
18.07.2019 11:00:00 27,0 21,3 5 3 E 1011,4 20 60
18.07.2019 10:00:00 26,6 21,8 4 2 NE 1010,9 10 60
18.07.2019 09:00:00 25,8 22,1 4 2 NE 1010,9 10 60
18.07.2019 08:00:00 24,2 23,2 0 0 N 1010,3 10 54
18.07.2019 07:00:00 - - - - - - - -
18.07.2019 06:00:00 - - - - - - - -
18.07.2019 05:00:00 - - - - - - - -
18.07.2019 04:00:00 - - - - - - - -
18.07.2019 03:00:00 - - - - - - - -
18.07.2019 02:00:00 - - - - - - - -
18.07.2019 01:00:00 - - - - - - - -
18.07.2019 00:00:00 - - - - - - - -
17.07.2019 23:00:00 - - - - - - - -
17.07.2019 22:00:00 - - - - - - - -

tt = temperature
td = dewpoint
ff = wind speed
dd = wind direction
ppp = reduced air pressure
vv = visibility
sd = sunshine duration

Next stations